Presure
139 127 133 192 195 194 135 112 182 119 179 113 171 169 122 131 107 144 132 115 147 109 148 149 147 151 149 150 160 160 162 165 185
132 142 171 180 157 118 147 112 158 125 108 108 113 123 126 121 150 133 145 143 125 127 131 150 140 144 146 149 161 167 168 182 190
131 131 132 149 150 167 141 114 136 144 111 138 122 132 145 111 129 149 133 134 117 109 146 137 146 152 125 160 165 149 177 202 229
133 115 141 119 129 140 150 126 134 123 154 118 140 135 104 145 120 149 134 113 131 142 146 150 151 152 158 161 173 172 184 200 231
143 134 141 159 115 107 111 116 147 147 132 151 105 145 142 139 142 141 132 151 141 151 145 156 147 158 161 171 172 172 213 219 211
138 132 128 137 124 142 139 144 131 116 102 136 146 131 138 147 141 139 146 135 154 143 156 142 156 160 165 174 181 191 183 211 223
113 106 149 127 125 121 100 102 115 146 102 144 144 148 142 143 125 134 141 149 142 151 150 160 164 165 169 184 174 187 183 210 215
137 138 138 144 134 134 131 152 126 112 137 153 140 142 146 144 114 150 145 148 151 151 161 164 166 171 178 177 192 203 214 215 215
103 142 136 103 141 115 140 144 150 150 142 148 149 149 142 103 149 142 151 149 157 166 162 168 176 177 219 201 226 176 207 215 215
148 140 136 137 144 151 148 142 143 135 152 139 140 145 121 157 149 148 153 157 163 166 170 181 190 191 198 209 225 209 213 215 208
148 151 152 149 145 148 154 134 151 142 83 151 138 146 130 156 158 157 162 167 169 176 174 184 186 210 207 215 222 212 214 210 205
151 148 142 135 149 148 153 138 93 145 144 148 149 157 153 155 159 168 167 171 177 174 177 175 202 205 205 218 212 210 197 204 204
131 108 147 136 143 143 134 142 151 156 148 149 148 154 155 154 162 170 173 178 176 185 177 195 203 219 237 212 212 210 208 204 202
107 141 141 118 139 143 152 151 145 152 151 147 152 153 159 161 163 171 172 173 178 180 184 200 225 231 217 196 211 209 203 197 205
142 136 144 148 153 150 155 152 149 148 142 153 140 158 165 170 169 169 182 187 180 192 197 208 239 218 201 216 207 208 203 203 205
157 152 152 159 149 153 150 152 150 142 138 154 159 168 169 162 179 162 175 181 188 191 205 242 229 224 208 216 210 210 208 207 205
153 153 154 154 147 147 148 152 156 157 161 165 167 168 170 175 159 182 186 178 193 200 238 228 222 218 220 209 217 207 206 207 204
145 145 147 147 138 150 156 157 161 162 166 165 169 173 167 180 185 186 185 192 198 219 227 238 220 223 216 210 214 212 209 207 204
155 155 158 158 157 159 162 163 167 166 166 167 176 172 181 180 185 191 183 201 235 235 231 229 225 217 221 220 213 206 208 205 206
150 153 153 156 160 162 161 162 163 168 167 177 177 183 188 193 187 194 199 237 235 242 231 226 224 216 214 207 208 203 208 207 212
Wind_Speed
39 35 36 34 33 34 34 33 37 32 40 35 43 45 38 39 40 50 44 45 58 44 64 68 68 73 72 74 84 82 85 86 97
38 39 42 38 36 33 35 35 39 37 36 37 40 40 41 45 53 45 55 56 49 54 56 72 65 69 73 76 87 91 90 96 80
38 39 38 39 43 42 40 38 41 42 39 42 41 44 50 45 47 58 56 54 49 48 70 63 74 78 57 88 91 76 96 97 74
39 38 43 40 40 43 43 42 44 41 48 42 44 45 41 55 49 63 55 53 62 68 74 77 79 82 88 89 96 94 103 92 70
46 43 45 45 41 39 41 43 49 50 47 54 41 53 53 53 58 60 59 75 68 77 75 84 79 88 89 96 93 95 81 73 77
45 46 47 46 45 48 49 50 47 48 45 48 57 52 53 66 61 65 71 65 80 72 84 77 86 87 90 98 99 95 95 75 68
44 40 53 48 49 48 39 41 47 56 42 56 59 62 59 64 61 63 71 77 72 81 81 90 92 90 94 100 92 91 92 71 70
47 48 52 54 49 51 50 60 47 47 51 67 58 61 67 66 56 78 75 79 83 83 92 94 94 97 99 94 92 82 74 72 70
41 56 52 43 55 47 55 59 63 64 58 69 71 73 67 52 77 73 83 81 88 93 91 96 100 98 90 91 78 83 76 72 69
63 54 52 52 58 65 64 57 59 58 72 62 67 75 63 85 78 79 86 89 92 94 97 103 105 98 97 91 79 80 77 73 69
65 67 66 65 63 65 70 55 71 66 41 75 67 81 69 87 87 86 91 94 97 101 95 102 94 95 94 91 80 80 78 72 73
68 63 58 62 70 69 74 58 47 71 72 77 81 90 88 90 92 97 93 98 101 96 96 91 101 96 94 87 82 83 81 78 77
55 48 67 57 64 63 59 69 78 82 78 83 83 92 93 91 97 102 102 106 100 107 96 106 102 99 75 86 84 82 81 80 81
48 63 62 51 62 70 80 81 74 84 83 80 89 91 96 99 99 104 103 102 104 104 105 107 95 88 90 91 83 80 82 84 83
67 63 74 78 84 81 87 84 83 79 72 92 73 98 104 105 104 102 113 114 108 113 112 108 85 91 92 87 87 83 84 85 83
87 84 84 89 80 88 82 88 85 74 70 97 100 105 105 97 112 95 109 112 114 111 112 88 89 88 93 87 87 85 84 85 86
87 86 87 87 80 82 82 90 96 97 99 102 102 104 108 109 93 114 115 108 117 114 95 95 92 90 87 92 87 88 88 88 88
73 76 80 81 73 88 97 98 101 101 104 101 103 107 103 114 116 115 114 116 115 105 98 89 93 88 90 94 92 92 90 90 92
93 94 97 96 96 99 101 103 105 104 101 103 111 106 114 114 116 120 114 118 100 97 94 91 89 91 89 91 94 97 97 96 99
82 90 89 95 100 100 99 99 100 105 103 114 113 118 118 119 116 119 119 102 99 91 90 92 92 95 95 99 96 99 104 100 104
Wind_Direction
271 272 276 273 265 265 291 272 272 278 280 283 282 282 288 296 295 305 299 292 312 294 312 312 312 312 310 308 313 311 310 309 315
268 275 274 274 272 272 282 275 277 279 284 287 286 291 292 295 303 300 305 311 296 293 306 312 305 308 307 307 311 312 311 315 315
266 271 273 273 281 279 277 277 281 283 284 297 295 299 304 292 295 308 300 303 301 294 310 301 309 310 297 312 314 312 317 319 323
266 265 278 271 277 280 286 279 289 289 290 289 300 298 294 307 300 308 302 294 298 309 310 309 310 310 311 311 316 316 319 319 323
275 274 277 275 272 277 279 281 291 293 294 296 291 303 307 309 311 309 296 308 306 307 307 310 306 309 311 315 316 315 323 323 320
271 276 267 282 275 289 284 292 292 284 289 298 305 303 306 310 306 300 307 300 307 304 309 302 307 309 312 315 316 317 316 321 322
266 273 274 272 273 279 282 284 284 293 292 303 304 305 305 308 289 297 302 306 302 306 306 307 310 311 312 315 315 315 315 320 320
273 276 279 277 284 284 283 285 290 291 298 297 302 303 303 303 296 304 303 304 305 305 307 310 311 313 314 313 314 318 321 321 319
273 274 276 279 284 285 289 295 295 296 300 300 299 302 300 292 302 300 304 303 305 308 309 309 311 311 320 314 321 311 320 320 319
275 277 277 281 284 285 292 294 297 292 295 299 299 302 299 301 301 301 302 305 306 308 309 311 313 313 313 317 318 319 319 318 316
275 275 278 282 288 289 286 289 292 298 300 298 295 302 301 302 301 303 304 306 307 309 309 312 312 316 317 320 315 316 317 315 313
272 280 284 286 285 288 286 293 288 298 299 301 301 300 301 303 303 304 305 306 308 309 311 311 313 315 316 318 314 315 312 313 311
279 281 284 282 289 289 285 293 295 295 299 300 300 301 302 301 302 304 306 308 309 310 310 313 314 316 308 315 312 311 312 310 309
276 283 285 287 286 291 289 293 295 297 297 297 298 299 301 301 302 304 306 307 309 311 311 312 313 312 313 311 310 308 307 307 307
282 281 285 288 288 290 289 292 294 295 293 298 292 300 300 301 303 304 306 307 308 309 310 312 308 311 308 308 307 306 304 304 303
275 279 283 281 289 289 292 293 294 292 291 296 296 299 299 300 303 303 305 306 306 309 310 306 307 306 308 303 303 302 301 300 301
278 280 283 284 289 290 292 292 293 293 294 295 296 297 300 301 300 303 303 305 306 308 308 307 306 304 301 301 299 299 299 299 300
279 281 283 285 284 288 289 290 290 291 293 293 295 298 298 300 302 302 302 304 306 307 306 302 303 301 300 299 298 298 297 295 295
277 279 279 283 285 286 286 288 290 291 292 294 296 297 298 301 301 302 303 304 304 304 302 301 300 299 297 297 297 297 298 297 296
278 280 282 284 283 284 285 287 288 291 292 295 296 297 299 300 301 302 303 305 303 301 299 298 298 298 296 294 294 293 292 290 292